When you browse on this site, cookies collect data to enhance your experience and personalize the content and advertising you see.
Visit our Privacy Policy to learn more. By continuing to use the site, you agree to this use of cookies and data.
  • în România
  • Lista ţărilor
  • Pe 7 zile
  • Temperatura apei
  • Meteo pe hartă
  • Widget-uri
  • user-avatar
    Intrare

    Meteo pe oră la Simanovo

    Astăzi, 15 Octombrie, Marţi

    Timp Temperatura Precipitaţii Vânt Presiune Umiditate
    00:00 +6°C° 0.2 mm 2 m/s 737 mmHg 96%
    01:00 +5°C° 0.2 mm 3 m/s 737 mmHg 95%
    02:00 +5°C° 0 mm 3 m/s 738 mmHg 94%
    03:00 +4°C° 0.2 mm 3 m/s 739 mmHg 93%
    04:00 +4°C° 0.2 mm 4 m/s 740 mmHg 91%
    05:00 +3°C° 0.2 mm 4 m/s 741 mmHg 90%
    06:00 +3°C° 0 mm 4 m/s 743 mmHg 87%
    07:00 +3°C° 0 mm 4 m/s 744 mmHg 85%
    08:00 +2°C° 0 mm 3 m/s 745 mmHg 82%
    09:00 +3°C° 0 mm 3 m/s 745 mmHg 79%
    10:00 +3°C° 0 mm 4 m/s 746 mmHg 76%
    11:00 +3°C° 0 mm 4 m/s 747 mmHg 73%
    12:00 +3°C° 0 mm 4 m/s 748 mmHg 72%
    13:00 +3°C° 0 mm 4 m/s 748 mmHg 71%
    14:00 +1°C° 0 mm 4 m/s 749 mmHg 69%
    15:00 +2°C° 0 mm 3 m/s 749 mmHg 71%
    16:00 +2°C° 0 mm 3 m/s 750 mmHg 72%
    17:00 +3°C° 0 mm 2 m/s 750 mmHg 73%
    18:00 +3°C° 0 mm 2 m/s 750 mmHg 74%
    19:00 +4°C° 0 mm 1 m/s 751 mmHg 75%
    20:00 +4°C° 0 mm 1 m/s 751 mmHg 76%
    21:00 +3°C° 0 mm 1 m/s 751 mmHg 77%
    22:00 +3°C° 0 mm 1 m/s 751 mmHg 78%
    23:00 +2°C° 0 mm 0 m/s 752 mmHg 80%

    Mâine, 16 Octombrie, Miercuri

    Timp Temperatura Precipitaţii Vânt Presiune Umiditate
    00:00 +2°C° 0 mm 1 m/s 752 mmHg 81%
    01:00 +2°C° 0 mm 1 m/s 752 mmHg 81%
    02:00 +2°C° 0 mm 1 m/s 753 mmHg 82%
    03:00 +2°C° 0 mm 1 m/s 752 mmHg 83%
    04:00 +2°C° 0 mm 1 m/s 752 mmHg 84%
    05:00 +1°C° 0 mm 2 m/s 752 mmHg 85%
    06:00 +1°C° 0 mm 2 m/s 752 mmHg 84%
    07:00 +2°C° 0 mm 2 m/s 752 mmHg 83%
    08:00 +2°C° 0 mm 2 m/s 752 mmHg 82%
    09:00 +1°C° 0 mm 3 m/s 752 mmHg 79%
    10:00 +2°C° 0 mm 3 m/s 751 mmHg 76%
    11:00 +1°C° 0 mm 4 m/s 751 mmHg 73%
    12:00 +1°C° 0 mm 4 m/s 750 mmHg 73%
    13:00 +1°C° 0 mm 4 m/s 750 mmHg 73%
    14:00 +2°C° 0 mm 5 m/s 749 mmHg 73%
    15:00 +2°C° 0 mm 5 m/s 748 mmHg 75%
    16:00 +2°C° 0 mm 5 m/s 747 mmHg 77%
    17:00 +2°C° 0 mm 5 m/s 747 mmHg 80%
    18:00 +3°C° 0 mm 4 m/s 746 mmHg 82%
    19:00 +3°C° 0 mm 4 m/s 746 mmHg 85%
    20:00 +3°C° 0 mm 3 m/s 745 mmHg 87%
    21:00 +3°C° 0 mm 3 m/s 744 mmHg 89%
    22:00 +4°C° 0 mm 4 m/s 744 mmHg 90%
    23:00 +5°C° 0 mm 4 m/s 743 mmHg 91%

    Poimâine, 17 Octombrie, Joi

    Timp Temperatura Precipitaţii Vânt Presiune Umiditate
    00:00 +5°C° 0 mm 4 m/s 743 mmHg 93%
    01:00 +6°C° 0 mm 4 m/s 742 mmHg 94%
    02:00 +6°C° 0 mm 4 m/s 742 mmHg 95%
    03:00 +8°C° 0 mm 3 m/s 742 mmHg 96%
    04:00 +8°C° 0 mm 3 m/s 741 mmHg 96%
    05:00 +8°C° 0 mm 3 m/s 741 mmHg 96%
    06:00 +8°C° 0 mm 3 m/s 741 mmHg 96%
    07:00 +9°C° 0 mm 3 m/s 741 mmHg 96%
    08:00 +9°C° 0 mm 3 m/s 741 mmHg 96%
    09:00 +9°C° 0 mm 2 m/s 741 mmHg 95%
    10:00 +9°C° 0 mm 2 m/s 742 mmHg 95%
    11:00 +9°C° 0 mm 2 m/s 742 mmHg 94%
    12:00 +8°C° 0 mm 2 m/s 742 mmHg 93%
    13:00 +8°C° 0 mm 2 m/s 743 mmHg 93%
    14:00 +7°C° 0 mm 3 m/s 743 mmHg 92%
    15:00 +5°C° 0.4 mm 3 m/s 743 mmHg 91%
    16:00 +5°C° 0.4 mm 4 m/s 744 mmHg 91%
    17:00 +4°C° 0.4 mm 4 m/s 744 mmHg 90%
    18:00 +4°C° 0.5 mm 4 m/s 744 mmHg 90%
    19:00 +2°C° 0.5 mm 5 m/s 745 mmHg 89%
    20:00 +2°C° 0.5 mm 5 m/s 745 mmHg 89%
    21:00 +2°C° 0.2 mm 5 m/s 745 mmHg 89%
    22:00 +1°C° 0.2 mm 5 m/s 745 mmHg 88%
    23:00 +1°C° 0.2 mm 5 m/s 745 mmHg 87%

    18 Octombrie, Vineri

    Timp Temperatura Precipitaţii Vânt Presiune Umiditate
    00:00 +1°C° 0 mm 5 m/s 746 mmHg 86%
    01:00 0°C° 0 mm 5 m/s 746 mmHg 85%
    02:00 0°C° 0 mm 5 m/s 746 mmHg 84%
    03:00 0°C° 0 mm 4 m/s 746 mmHg 84%
    04:00 0°C° 0 mm 4 m/s 747 mmHg 84%
    05:00 0°C° 0 mm 4 m/s 747 mmHg 85%
    06:00 0°C° 0 mm 4 m/s 747 mmHg 83%
    07:00 0°C° 0 mm 4 m/s 748 mmHg 82%
    08:00 0°C° 0 mm 4 m/s 748 mmHg 81%
    09:00 0°C° 0 mm 4 m/s 748 mmHg 80%
    10:00 0°C° 0 mm 4 m/s 749 mmHg 78%
    11:00 +1°C° 0 mm 4 m/s 749 mmHg 77%
    12:00 +1°C° 0 mm 4 m/s 749 mmHg 77%
    13:00 +2°C° 0 mm 3 m/s 749 mmHg 77%
    14:00 +2°C° 0 mm 3 m/s 749 mmHg 77%
    15:00 +2°C° 0 mm 3 m/s 749 mmHg 79%
    16:00 +2°C° 0 mm 3 m/s 749 mmHg 80%
    17:00 +1°C° 0 mm 3 m/s 749 mmHg 82%
    18:00 +1°C° 0 mm 3 m/s 749 mmHg 83%
    19:00 +1°C° 0 mm 3 m/s 749 mmHg 84%
    20:00 +2°C° 0 mm 3 m/s 750 mmHg 84%
    21:00 +1°C° 0.1 mm 3 m/s 750 mmHg 86%
    22:00 +1°C° 0.1 mm 3 m/s 749 mmHg 88%
    23:00 +1°C° 0.1 mm 3 m/s 749 mmHg 90%

    19 Octombrie, Sâmbătă

    Timp Temperatura Precipitaţii Vânt Presiune Umiditate
    00:00 +1°C° 0.1 mm 3 m/s 749 mmHg 90%
    01:00 +1°C° 0.1 mm 3 m/s 749 mmHg 91%
    02:00 +1°C° 0.1 mm 3 m/s 749 mmHg 91%
    03:00 +1°C° 0.1 mm 3 m/s 749 mmHg 92%
    04:00 +2°C° 0.1 mm 3 m/s 749 mmHg 92%
    05:00 +3°C° 0.1 mm 2 m/s 749 mmHg 93%
    06:00 +2°C° 0 mm 3 m/s 749 mmHg 93%
    07:00 +2°C° 0 mm 3 m/s 749 mmHg 93%
    08:00 +2°C° 0 mm 3 m/s 749 mmHg 93%
    09:00 +3°C° 0 mm 3 m/s 749 mmHg 93%
    10:00 +3°C° 0 mm 3 m/s 749 mmHg 93%
    11:00 +3°C° 0 mm 3 m/s 750 mmHg 93%
    12:00 +4°C° 0 mm 3 m/s 750 mmHg 92%
    13:00 +4°C° 0 mm 3 m/s 750 mmHg 92%
    14:00 +5°C° 0 mm 3 m/s 749 mmHg 92%
    15:00 +5°C° 0 mm 3 m/s 750 mmHg 93%
    16:00 +6°C° 0 mm 2 m/s 750 mmHg 95%
    17:00 +6°C° 0 mm 2 m/s 750 mmHg 96%
    18:00 +6°C° 0 mm 2 m/s 750 mmHg 96%
    19:00 +6°C° 0 mm 2 m/s 750 mmHg 97%
    20:00 +7°C° 0 mm 2 m/s 750 mmHg 97%
    21:00 +7°C° 0 mm 2 m/s 750 mmHg 97%
    22:00 +7°C° 0 mm 2 m/s 750 mmHg 97%
    23:00 +7°C° 0 mm 2 m/s 750 mmHg 97%

    20 Octombrie, Duminică

    Timp Temperatura Precipitaţii Vânt Presiune Umiditate
    00:00 +7°C° 0 mm 2 m/s 750 mmHg 97%
    01:00 +7°C° 0 mm 2 m/s 750 mmHg 97%
    02:00 +7°C° 0 mm 2 m/s 750 mmHg 97%
    03:00 +8°C° 0 mm 2 m/s 750 mmHg 97%
    04:00 +8°C° 0 mm 2 m/s 750 mmHg 97%
    05:00 +8°C° 0 mm 2 m/s 750 mmHg 97%
    06:00 +8°C° 0 mm 3 m/s 750 mmHg 96%
    07:00 +8°C° 0 mm 3 m/s 750 mmHg 95%
    08:00 +8°C° 0 mm 3 m/s 750 mmHg 94%
    09:00 +8°C° 0 mm 4 m/s 750 mmHg 91%
    10:00 +10°C° 0 mm 4 m/s 750 mmHg 88%
    11:00 +10°C° 0 mm 4 m/s 749 mmHg 86%
    12:00 +10°C° 0 mm 4 m/s 749 mmHg 86%
    13:00 +10°C° 0 mm 4 m/s 749 mmHg 85%
    14:00 +10°C° 0 mm 4 m/s 749 mmHg 85%
    15:00 +10°C° 0.1 mm 4 m/s 749 mmHg 86%
    16:00 +10°C° 0.1 mm 4 m/s 748 mmHg 87%
    17:00 +10°C° 0.1 mm 4 m/s 748 mmHg 88%
    18:00 +9°C° 0.1 mm 5 m/s 748 mmHg 88%
    19:00 +9°C° 0.1 mm 5 m/s 748 mmHg 89%
    20:00 +9°C° 0.1 mm 5 m/s 748 mmHg 89%
    21:00 +9°C° 0 mm 5 m/s 748 mmHg 90%
    22:00 +8°C° 0 mm 4 m/s 748 mmHg 90%
    23:00 +8°C° 0 mm 4 m/s 747 mmHg 91%
    Arată mai mult